[[{"header":{"parameterUnit":"m.s-1","parameterCategory":1,"la1":30.2991,"la2":30.254,"lo1":-89.0895,"lo2":-89.0444,"dy":0.0017,"dx":0.0017,"nx":28,"ny":28,"refTime":"2024-03-18T21:00:00:Z","depth":0,"parameterNumber":2,"parameterNumberName":"U-component_of_WINDS"},"data":[0,0,0,0,0,0,0,0,0,0,0,0,0,0,0,0,0,0,0,0,0,0,0,0,0,0,0,0,0,0,0,0,0,0,0,0,0,0,0,0,0,0,0,0,0,0,0,0,0,0,0,0,0,0,0,0,0,0,0.6584,0.6585,0,0.6663,0.6664,0.6665,0.6707,0.6707,0.6707,0.6707,0.6789,0.6791,0.6793,0,0,0,0,0,0,0,0,0,0,0,0,0,0.6467,0.6469,0.6584,0.6585,0.6586,0.6663,0.6664,0.6666,0.6707,0.6707,0.6707,0.6707,0.6788,0.6791,0.6793,0,0,0,0,0,0,0,0,0,0,0,0,0,0.6529,0.647,0.6584,0.6616,0.662,0.6663,0.6664,0.6666,0.6707,0.6707,0.6707,0.6707,0.6787,0.6791,0.6794,0.6811,0,0,0.6803,0.6805,0,0,0,0,0,0,0,0,0.6526,0.6534,0.661,0.6614,0.6618,0.6675,0.6653,0.6715,0.6707,0.6674,0.6707,0.6707,0.6751,0.6757,0.6772,0.6815,0.6819,0.6804,0.6806,0.6807,0.6808,0,0,0,0,0,0,0,0.6521,0.653,0.6615,0.6611,0.6616,0.6626,0.6635,0.6665,0.6711,0.6677,0.668,0.6689,0.6753,0.6769,0.6774,0.682,0.6804,0.6806,0.6808,0.681,0.688,0.688,0,0,0,0,0,0,0.6512,0.6526,0.6613,0.6618,0.6571,0.6628,0.6638,0.6657,0.6711,0.6719,0.6689,0.669,0.6763,0.6771,0.6777,0.6801,0.6807,0.681,0.6812,0.688,0.688,0.688,0,0,0,0,0,0,0.6509,0.6519,0.661,0.6573,0.6585,0.663,0.6651,0.6658,0.6674,0.672,0.6728,0.6696,0.6764,0.6773,0.6802,0.6804,0.6811,0.6814,0.688,0.688,0.688,0.6848,0,0,0,0,0,0,0.6506,0.6518,0.6525,0.6573,0.6587,0.6633,0.6651,0.666,0.6679,0.6683,0.6729,0.6737,0.6765,0.6797,0.6805,0.6809,0.6817,0.6881,0.688,0.688,0.685,0.6847,0.6845,0,0,0,0,0,0.6501,0.6514,0.6526,0.6536,0.6597,0.6634,0.6642,0.6673,0.6679,0.6687,0.6716,0.6735,0.6803,0.68,0.681,0.6814,0.6881,0.688,0.688,0.685,0.6848,0.6846,0,0,0,0,0,0,0.6466,0.652,0.6534,0.6562,0.6593,0.664,0.6651,0.667,0.6699,0.6701,0.6739,0.6749,0.6774,0.6797,0.6793,0.6833,0.6844,0.6845,0.6817,0.6815,0.6813,0.6807,0.6819,0,0,0,0,0,0.6461,0.6486,0.6532,0.6553,0.6567,0.6606,0.6623,0.6645,0.6678,0.6691,0.6723,0.6754,0.6782,0.68,0.6829,0.6853,0.6863,0.686,0.6858,0.6856,0.6858,0.6871,0.687,0.688,0.688,0.688,0,0,0.6452,0.6485,0.6498,0.6546,0.6572,0.6597,0.6617,0.6642,0.6661,0.6695,0.6725,0.6749,0.6786,0.6813,0.6826,0.6833,0.6857,0.6856,0.6855,0.6857,0.6871,0.687,0.6869,0.688,0.688,0.688,0,0,0.6447,0.6475,0.6494,0.652,0.6559,0.6585,0.6589,0.6634,0.6651,0.6681,0.6707,0.6729,0.6778,0.6803,0.6822,0.6825,0.6844,0.6834,0.6823,0.6836,0.6835,0.6834,0.6835,0.6835,0.6835,0.6835,0.6835,0,0.6431,0.6469,0.6502,0.6526,0.6546,0.6577,0.6597,0.662,0.6666,0.6679,0.6686,0.6746,0.6773,0.6806,0.6806,0.6821,0.6827,0.6829,0.6832,0.6832,0.6832,0.6833,0.6833,0.6833,0.6833,0.6833,0.6834,0,0.6447,0.6473,0.6484,0.6527,0.6548,0.657,0.6605,0.6623,0.6642,0.6667,0.6696,0.673,0.6766,0.6775,0.6795,0.681,0.6813,0.6825,0.6836,0.6829,0.683,0.6831,0.6831,0.6831,0.6832,0.6832,0,0,0.6423,0.6484,0.6487,0.6507,0.6551,0.6572,0.6594,0.6629,0.6642,0.6673,0.6692,0.6731,0.6743,0.6765,0.6787,0.6798,0.6797,0.6809,0.6811,0.6805,0.6815,0.6805,0.6805,0.681,0.681,0.681,0.6812,0,0.6425,0.6467,0.6496,0.6526,0.655,0.658,0.6599,0.6628,0.6652,0.6675,0.6701,0.6728,0.6741,0.6755,0.6767,0.6795,0.68,0.6795,0.6828,0.6828,0.6817,0.6806,0.6796,0.6796,0.6813,0.6813,0.6813,0,0.6433,0.6462,0.6494,0.6535,0.6546,0.6563,0.6596,0.6618,0.6652,0.6668,0.6691,0.6714,0.6738,0.6747,0.678,0.6776,0.6791,0.6806,0.6807,0.6811,0.682,0.681,0.6797,0.6797,0.6814,0.6814,0.6814,0,0.6412,0.6459,0.6484,0.65,0.6549,0.656,0.658,0.6614,0.6632,0.6661,0.6673,0.6704,0.6721,0.6745,0.6775,0.6778,0.6805,0.6816,0.6818,0.6817,0.6823,0.6822,0.6812,0.6833,0.6833,0.6833,0.6833,0,0.6411,0.6429,0.6475,0.649,0.6511,0.6545,0.6565,0.6588,0.6617,0.6637,0.6665,0.6683,0.6722,0.6744,0.6768,0.6791,0.6799,0.6812,0.6818,0.681,0.6808,0.682,0.6821,0.6833,0.6833,0.6833,0.6833,0,0.6391,0.6422,0.6452,0.6495,0.6506,0.6519,0.6556,0.6572,0.6596,0.6621,0.6629,0.6667,0.6695,0.6727,0.6766,0.6782,0.6803,0.6813,0.6792,0.6796,0.6796,0.6795,0.6793,0.6794,0.6814,0.6814,0.6814,0,0.6388,0.6403,0.6447,0.6462,0.6482,0.6506,0.6525,0.6558,0.6576,0.6614,0.6625,0.6655,0.668,0.6723,0.6755,0.6784,0.6794,0.6791,0.6798,0.6789,0.6793,0.6791,0.6793,0.6789,0.6789,0.6788,0.6788,0,0.6379,0.6394,0.6419,0.645,0.6471,0.6497,0.6524,0.6534,0.6573,0.6591,0.662,0.664,0.6678,0.6707,0.674,0.6762,0.6781,0.6785,0.6787,0.6779,0.6766,0.6772,0.6786,0.6785,0.6786,0.6786,0.6786,0.6786,0.6368,0.6382,0.6415,0.6442,0.6465,0.6489,0.6506,0.6532,0.6556,0.659,0.6608,0.6636,0.6668,0.6714,0.6734,0.6756,0.6763,0.6766,0.6766,0.6767,0.6764,0.6762,0.6762,0.6762,0.6762,0.6763,0.6763,0,0.636,0.6382,0.6407,0.6443,0.6464,0.648,0.651,0.6527,0.6551,0.6579,0.6603,0.6635,0.6663,0.6695,0.6725,0.6736,0.6746,0.6743,0.6742,0.6747,0.6756,0.6751,0.6735,0.6735,0.6735,0.6735,0.6735,0.6735,0.6359,0.6383,0.6401,0.6436,0.6459,0.6486,0.6502,0.6524,0.6546,0.658,0.6603,0.6624,0.6654,0.6686,0.6711,0.672,0.673,0.6724,0.6735,0.6744,0.6746,0.6748,0.6744,0.6726,0.6726,0.6724,0.6724,0.6724]},{"header":{"parameterUnit":"m.s-1","parameterCategory":1,"la1":30.2991,"la2":30.254,"lo1":-89.0895,"lo2":-89.0444,"dy":0.0017,"dx":0.0017,"nx":28,"ny":28,"refTime":"2024-03-18T21:00:00:Z","depth":0,"parameterNumber":3,"parameterNumberName":"V-component_of_WINDS"},"data":[0,0,0,0,0,0,0,0,0,0,0,0,0,0,0,0,0,0,0,0,0,0,0,0,0,0,0,0,0,0,0,0,0,0,0,0,0,0,0,0,0,0,0,0,0,0,0,0,0,0,0,0,0,0,0,0,0,0,2.2856,2.2856,0,2.2864,2.2864,2.2864,2.2887,2.2888,2.2889,2.2889,2.2895,2.2895,2.2894,0,0,0,0,0,0,0,0,0,0,0,0,0,2.2862,2.2862,2.2856,2.2857,2.2857,2.2864,2.2864,2.2864,2.2887,2.2888,2.2889,2.2889,2.2895,2.2895,2.2894,0,0,0,0,0,0,0,0,0,0,0,0,0,2.2863,2.2861,2.2856,2.2869,2.2871,2.2864,2.2864,2.2864,2.2887,2.2888,2.2889,2.289,2.2895,2.2895,2.2894,2.2875,0,0,2.2893,2.2892,0,0,0,0,0,0,0,0,2.2863,2.2863,2.2867,2.2868,2.287,2.2876,2.2868,2.2867,2.2887,2.2881,2.2889,2.289,2.2888,2.2888,2.2887,2.2875,2.2875,2.2893,2.2892,2.2892,2.2892,0,0,0,0,0,0,0,2.2863,2.2863,2.2859,2.2867,2.2869,2.2874,2.2875,2.2868,2.288,2.2881,2.2883,2.2884,2.2889,2.2888,2.2888,2.2875,2.2893,2.2892,2.2892,2.2892,2.2847,2.2846,0,0,0,0,0,0,2.2861,2.2863,2.2859,2.2859,2.2868,2.2873,2.2875,2.2873,2.288,2.2882,2.2883,2.2885,2.2888,2.2888,2.2888,2.2865,2.2892,2.2892,2.2891,2.2848,2.2847,2.2846,0,0,0,0,0,0,2.2861,2.2861,2.2859,2.2861,2.2862,2.2873,2.287,2.2873,2.2872,2.2881,2.2883,2.288,2.2889,2.2889,2.2878,2.2866,2.2891,2.2891,2.2849,2.2847,2.2846,2.2819,0,0,0,0,0,0,2.2861,2.2861,2.2854,2.2861,2.2861,2.2849,2.2869,2.2872,2.2871,2.2873,2.2879,2.2881,2.289,2.2878,2.2877,2.2865,2.289,2.285,2.2848,2.2846,2.2821,2.2817,2.2814,0,0,0,0,0,2.2861,2.2846,2.2853,2.2853,2.2853,2.2848,2.2848,2.2859,2.287,2.2863,2.2869,2.288,2.2867,2.2877,2.2876,2.2864,2.2851,2.2849,2.2847,2.2823,2.2818,2.2814,0,0,0,0,0,0,2.2836,2.2847,2.2855,2.2842,2.2844,2.2852,2.2843,2.2854,2.2852,2.2855,2.2868,2.2869,2.2856,2.2859,2.287,2.2845,2.2861,2.2859,2.2843,2.2839,2.2835,2.2834,2.289,0,0,0,0,0,2.2829,2.2825,2.2834,2.2821,2.2822,2.2832,2.2831,2.2839,2.2841,2.2842,2.2847,2.2849,2.2845,2.2842,2.2839,2.2822,2.2823,2.2813,2.2809,2.2806,2.2804,2.2794,2.2789,2.2839,2.2839,2.2839,0,0,2.2814,2.282,2.2816,2.2816,2.2819,2.2813,2.2833,2.2826,2.2822,2.2841,2.2831,2.2835,2.2837,2.2823,2.2817,2.2825,2.279,2.2804,2.2801,2.28,2.2791,2.2787,2.2782,2.2838,2.2838,2.2838,0,0,2.2784,2.2788,2.2777,2.278,2.2783,2.2791,2.2788,2.2795,2.2798,2.2788,2.2802,2.2797,2.279,2.2791,2.2791,2.2761,2.2771,2.276,2.2739,2.273,2.2726,2.2722,2.2711,2.2706,2.2757,2.2757,2.2757,0,2.2765,2.2757,2.277,2.2763,2.2762,2.278,2.2768,2.277,2.2772,2.2771,2.278,2.2772,2.2775,2.2761,2.2753,2.2753,2.2749,2.2759,2.2725,2.2722,2.2719,2.2708,2.2704,2.2756,2.2756,2.2756,2.2756,0,2.2733,2.2728,2.2719,2.2721,2.2719,2.271,2.2721,2.2717,2.2726,2.2732,2.2721,2.2725,2.2723,2.2721,2.2729,2.2707,2.2712,2.2723,2.2739,2.2713,2.2702,2.2698,2.2754,2.2754,2.2755,2.2755,0,0,2.2687,2.2696,2.2693,2.2693,2.2699,2.2695,2.2686,2.2684,2.268,2.2682,2.2674,2.2668,2.2678,2.2677,2.2686,2.2678,2.2652,2.269,2.269,2.2682,2.2627,2.2618,2.2613,2.2659,2.2659,2.2658,2.2627,0,2.2657,2.2643,2.2654,2.2638,2.2632,2.2649,2.2641,2.2643,2.2648,2.2644,2.265,2.2645,2.2659,2.2659,2.2651,2.2657,2.2641,2.2659,2.2651,2.2651,2.2649,2.2608,2.2598,2.2568,2.2623,2.2622,2.2622,0,2.2621,2.2621,2.2603,2.2609,2.2608,2.26,2.2599,2.2595,2.2598,2.2602,2.2602,2.2612,2.2603,2.2619,2.2606,2.2618,2.2616,2.2618,2.2617,2.2616,2.2634,2.2604,2.2559,2.2554,2.2616,2.2616,2.2617,0,2.2587,2.2583,2.2572,2.2572,2.2579,2.2573,2.2576,2.2579,2.2577,2.2576,2.2575,2.2573,2.2571,2.2569,2.2578,2.259,2.2564,2.2581,2.2566,2.2566,2.2559,2.2559,2.2512,2.2559,2.2559,2.2559,2.256,0,2.2553,2.2541,2.2557,2.255,2.2537,2.255,2.2537,2.2541,2.2544,2.2538,2.2552,2.2546,2.2559,2.2554,2.2561,2.2548,2.2548,2.255,2.2552,2.2548,2.2548,2.2546,2.2548,2.2558,2.2559,2.2559,2.2559,0,2.2513,2.2523,2.2512,2.2519,2.2521,2.2511,2.2518,2.2511,2.2517,2.2509,2.2508,2.2517,2.2512,2.2521,2.2517,2.2522,2.2504,2.2509,2.2503,2.2504,2.2488,2.2489,2.2437,2.243,2.2483,2.2483,2.2482,0,2.2489,2.2481,2.2488,2.2485,2.2487,2.2482,2.248,2.2492,2.249,2.2492,2.2484,2.248,2.2477,2.2468,2.2474,2.247,2.2475,2.2457,2.2475,2.2471,2.2473,2.2473,2.2472,2.2453,2.2452,2.2452,2.2452,0,2.2447,2.2452,2.2449,2.2448,2.2445,2.2444,2.2445,2.2441,2.2454,2.245,2.2445,2.2443,2.2438,2.2433,2.2431,2.2433,2.2444,2.2446,2.2442,2.2438,2.2434,2.2435,2.2492,2.2447,2.2447,2.2448,2.2448,2.2448,2.2414,2.2407,2.241,2.2406,2.2408,2.2408,2.2402,2.2408,2.2404,2.2401,2.2409,2.2401,2.2403,2.2402,2.2402,2.2396,2.2404,2.2399,2.2397,2.2395,2.2392,2.2436,2.2396,2.2396,2.2396,2.2396,2.2397,0,2.2371,2.2374,2.237,2.237,2.2367,2.2378,2.2379,2.2375,2.2369,2.237,2.2367,2.236,2.2356,2.2362,2.2358,2.2352,2.2356,2.235,2.235,2.235,2.2386,2.2389,2.2346,2.2346,2.2346,2.2346,2.2346,2.2346,2.2348,2.2336,2.2342,2.2331,2.2335,2.2328,2.2327,2.2327,2.2328,2.232,2.2316,2.232,2.2323,2.232,2.2315,2.2317,2.2315,2.2306,2.231,2.2343,2.2348,2.2352,2.2355,2.2306,2.2306,2.2274,2.2274,2.2274]}]]